Montreal Mirabel, Quebec

12:10 PM EDT on August 19, 2017 (GMT -0400)
Montreal Mirabel

Weather History for CYMX - January, 2013

Change the Weather History Date:

Sunday, January 6, 2013

  Actual Average Record
Temperature  
Mean Temperature 12 °F -  
Max Temperature 17 °F 20 °F 46 °F (2007)
Min Temperature 6 °F 6 °F -14 °F (2015)
Degree Days  
Heating Degree Days 54    
Moisture  
Dew Point 10 °F    
Average Humidity 87    
Maximum Humidity 93    
Minimum Humidity 79    
Precipitation  
Precipitation 0.00 in - - ()
Sea Level Pressure  
Sea Level Pressure 30.01 in    
Wind  
Wind Speed 5 mph ()    
Max Wind Speed 8 mph    
Max Gust Speed -    
Visibility 5.7 miles    
Events Snow    
Averages and records for this station are not official NWS values.
T = Trace of Precipitation, MM = Missing Value Source: Averaged Metar Reports

Daily Weather History Graph

Daily Weather History Graph

Search for Another Location

Airport or City:

Trip Planner

Search our weather history database for the weather conditions in past years. The results will help you decide how hot, cold, wet, or windy it might be!

Date:

Astronomy

Jan. 06, 2013 Rise Set
Actual Time 7:36 AM EST 4:28 PM EST
Civil Twilight 7:02 AM EST 5:01 PM EST
Nautical Twilight 6:25 AM EST 5:39 PM EST
Astronomical Twilight 5:49 AM EST 6:15 PM EST
Moon 1:40 AM EST (1/6) 11:59 AM EST (1/6)
Length of Visible Light 9h 59m
Length of Day
8h 51m
Waning Crescent, 33% of the Moon is Illuminated
Jan 6
Waning Crescent
Jan 11
New
Jan 18
First Quarter
Jan 26
Full
Feb 3
Last Quarter

Hourly Weather History & Observations

Time (EST) Temp. Windchill Dew Point Humidity Pressure Visibility Wind Dir Wind Speed Gust Speed Precip Events Conditions
12:00 AM 6.8 °F -0.1 °F 3.2 °F 85% 30.19 in 25.0 mi North 3.5 mph - N/A   Overcast
1:00 AM 8.6 °F 2.0 °F 5.0 °F 85% 30.16 in 25.0 mi NE 3.5 mph - N/A   Overcast
2:00 AM 10.4 °F 2.2 °F 5.0 °F 79% 30.13 in 20.0 mi NE 4.6 mph - N/A   Overcast
3:00 AM 10.4 °F 2.2 °F 5.0 °F 79% 30.08 in 20.0 mi NE 4.6 mph - N/A   Overcast
4:00 AM 10.4 °F 0.8 °F 5.0 °F 79% 30.05 in 20.0 mi NE 5.8 mph - N/A Snow Light Snow
5:00 AM 10.4 °F 2.2 °F 5.0 °F 79% 30.02 in 5.0 mi NE 4.6 mph - N/A Snow Light Snow
5:11 AM 10.4 °F 0.8 °F 6.8 °F 85% 30.02 in 2.0 mi ENE 5.8 mph - N/A Snow Light Snow
6:00 AM 10.4 °F -0.4 °F 6.8 °F 85% 30.01 in 2.5 mi NE 6.9 mph - N/A Snow Light Snow
6:38 AM 10.4 °F 4.0 °F 6.8 °F 85% 30.01 in 1.2 mi ENE 3.5 mph - N/A Snow Light Snow
7:00 AM 10.4 °F -1.5 °F 6.8 °F 85% 30.00 in 2.0 mi NNE 8.1 mph - N/A Snow Light Snow
8:00 AM 10.4 °F 2.2 °F 8.6 °F 92% 29.99 in 2.0 mi NE 4.6 mph - N/A Snow Light Snow
9:00 AM 12.2 °F 2.9 °F 8.6 °F 85% 29.98 in 2.5 mi NE 5.8 mph - N/A Snow Light Snow
10:00 AM 12.2 °F 4.3 °F 8.6 °F 85% 29.98 in 2.5 mi NNE 4.6 mph - N/A Snow Light Snow
11:00 AM 14.0 °F 5.1 °F 10.4 °F 86% 29.96 in 3.0 mi NE 5.8 mph - N/A Snow Light Snow
12:00 PM 15.8 °F 7.2 °F 12.2 °F 86% 29.93 in 3.0 mi NE 5.8 mph - N/A Snow Light Snow
1:00 PM 15.8 °F 8.6 °F 12.2 °F 86% 29.91 in 6.0 mi NE 4.6 mph - N/A Snow Light Snow
2:00 PM 15.8 °F 5.1 °F 12.2 °F 86% 29.91 in 2.0 mi ENE 8.1 mph - N/A Snow Light Snow
3:00 PM 15.8 °F 5.1 °F 12.2 °F 86% 29.93 in 2.0 mi ENE 8.1 mph - N/A Snow Light Snow
3:32 PM 15.8 °F 6.1 °F 14.0 °F 93% 29.93 in 1.0 mi ENE 6.9 mph - N/A Snow Light Snow
4:00 PM 15.8 °F 6.1 °F 14.0 °F 93% 29.94 in 1.2 mi NE 6.9 mph - N/A Snow Light Snow
5:00 PM 15.8 °F 7.2 °F 14.0 °F 93% 29.95 in 2.5 mi ENE 5.8 mph - N/A Snow Light Snow
6:00 PM 15.8 °F 8.6 °F 14.0 °F 93% 29.96 in 1.5 mi NE 4.6 mph - N/A Snow Light Snow
7:00 PM 17.6 °F 8.2 °F 14.0 °F 86% 29.99 in 2.0 mi NE 6.9 mph - N/A Snow Light Snow
8:00 PM 17.6 °F 9.3 °F 15.8 °F 93% 30.00 in 2.0 mi NE 5.8 mph - N/A Snow Light Snow
8:17 PM 17.6 °F 9.3 °F 15.8 °F 93% 30.01 in 2.0 mi NE 5.8 mph - N/A Snow Light Snow
9:00 PM 17.6 °F 10.7 °F 15.8 °F 93% 30.02 in 2.0 mi NE 4.6 mph - N/A Snow Light Snow
9:22 PM 17.6 °F 10.7 °F 15.8 °F 93% 30.03 in 10.0 mi ENE 4.6 mph - N/A Snow Light Snow
10:00 PM 17.6 °F 12.3 °F 14.0 °F 86% 30.05 in 12.0 mi NNE 3.5 mph - N/A Snow Light Snow
11:00 PM 15.8 °F 7.2 °F 12.2 °F 86% 30.08 in 8.0 mi NE 5.8 mph - N/A Snow Light Snow
11:49 PM 14.0 °F 8.2 °F 10.4 °F 86% 30.10 in 20.0 mi North 3.5 mph - N/A   Overcast